Time,TemperatureF,DewpointF,PressureIn,WindDirection,WindDirectionDegrees,WindSpeedMPH,WindSpeedGustMPH,Humidity,HourlyPrecipIn,Conditions,Clouds,dailyrainin,SoftwareType,DateUTC
2013-04-07 00:02:00,52.0,32.0,29.87,SE,130,6.0,9.0,46,0.00,,,-99.99,,2013-04-07 06:02:00,
2013-04-07 00:12:00,52.0,31.0,29.87,SSE,150,15.0,15.0,44,0.00,,,-99.99,,2013-04-07 06:12:00,
2013-04-07 00:22:00,53.0,31.0,29.87,SE,146,11.0,15.0,43,0.00,,,-99.99,,2013-04-07 06:22:00,
2013-04-07 00:32:00,53.0,30.0,29.87,South,169,11.0,17.0,42,0.00,,,-99.99,,2013-04-07 06:32:00,
2013-04-07 00:42:00,52.0,30.0,29.86,SSE,148,10.0,16.0,42,0.00,,,-99.99,,2013-04-07 06:42:00,
2013-04-07 00:52:00,52.0,30.0,29.86,SSE,153,9.0,11.0,42,0.00,,,-99.99,,2013-04-07 06:52:00,
2013-04-07 01:02:00,52.0,30.0,29.86,South,181,2.0,10.0,42,0.00,,,-99.99,,2013-04-07 07:02:00,
2013-04-07 01:12:00,52.0,30.0,29.86,South,179,6.0,20.0,43,0.00,,,-99.99,,2013-04-07 07:12:00,
2013-04-07 01:22:00,52.0,30.0,29.85,SSE,167,11.0,19.0,43,0.00,,,-99.99,,2013-04-07 07:22:00,
2013-04-07 01:32:00,51.0,31.0,29.85,SSE,152,8.0,19.0,45,0.00,,,-99.99,,2013-04-07 07:32:00,
2013-04-07 01:42:00,51.0,31.0,29.85,South,190,7.0,21.0,45,0.00,,,-99.99,,2013-04-07 07:42:00,
2013-04-07 01:52:00,51.0,31.0,29.85,SSW,193,9.0,19.0,46,0.00,,,-99.99,,2013-04-07 07:52:00,
2013-04-07 02:02:00,51.0,31.0,29.84,SSE,168,8.0,16.0,47,0.00,,,-99.99,,2013-04-07 08:02:00,
2013-04-07 02:12:00,50.0,32.0,29.84,SSW,199,8.0,13.0,48,0.00,,,-99.99,,2013-04-07 08:12:00,
2013-04-07 02:22:00,50.0,32.0,29.84,SSW,211,6.0,14.0,49,0.00,,,-99.99,,2013-04-07 08:22:00,
2013-04-07 02:32:00,50.0,32.0,29.84,SSW,204,3.0,9.0,49,0.00,,,-99.99,,2013-04-07 08:32:00,
2013-04-07 02:42:00,49.0,32.0,29.84,WNW,286,4.0,8.0,50,0.00,,,-99.99,,2013-04-07 08:42:00,
2013-04-07 02:52:00,49.0,32.0,29.84,WSW,254,2.0,7.0,50,0.00,,,-99.99,,2013-04-07 08:52:00,
2013-04-07 03:02:00,49.0,31.0,29.83,WNW,296,4.0,6.0,51,0.00,,,-99.99,,2013-04-07 09:02:00,
2013-04-07 03:12:00,47.0,31.0,29.83,North,7,2.0,4.0,53,0.00,,,-99.99,,2013-04-07 09:12:00,
2013-04-07 03:22:00,46.0,31.0,29.83,North,9,3.0,5.0,54,0.00,,,-99.99,,2013-04-07 09:22:00,
2013-04-07 03:33:00,47.0,31.0,29.83,WSW,245,4.0,7.0,55,0.00,,,-99.99,,2013-04-07 09:33:00,
2013-04-07 03:43:00,47.0,31.0,29.83,West,274,4.0,8.0,52,0.00,,,-99.99,,2013-04-07 09:43:00,
2013-04-07 03:53:00,48.0,30.0,29.83,WNW,288,9.0,13.0,50,0.00,,,-99.99,,2013-04-07 09:53:00,
2013-04-07 04:03:00,50.0,28.0,29.83,WNW,301,13.0,15.0,43,0.00,,,-99.99,,2013-04-07 10:03:00,
2013-04-07 04:13:00,50.0,26.0,29.83,WNW,302,9.0,14.0,39,0.00,,,-99.99,,2013-04-07 10:13:00,
2013-04-07 04:22:00,50.0,25.0,29.83,WNW,286,12.0,20.0,38,0.00,,,-99.99,,2013-04-07 10:22:00,
2013-04-07 04:33:00,50.0,25.0,29.83,NW,306,7.0,20.0,36,0.00,,,-99.99,,2013-04-07 10:33:00,
2013-04-07 04:42:00,50.0,25.0,29.83,NNW,329,7.0,18.0,37,0.00,,,-99.99,,2013-04-07 10:42:00,
2013-04-07 04:52:00,49.0,27.0,29.84,NNW,346,6.0,15.0,42,0.00,,,-99.99,,2013-04-07 10:52:00,
2013-04-07 05:02:00,48.0,31.0,29.84,NE,38,9.0,17.0,52,0.00,,,-99.99,,2013-04-07 11:02:00,
2013-04-07 05:12:00,47.0,33.0,29.84,NNE,18,5.0,13.0,58,0.00,,,-99.99,,2013-04-07 11:12:00,
2013-04-07 05:22:00,46.0,34.0,29.84,NNE,22,10.0,16.0,62,0.00,,,-99.99,,2013-04-07 11:22:00,
2013-04-07 05:32:00,45.0,34.0,29.84,NNW,339,6.0,16.0,65,0.00,,,-99.99,,2013-04-07 11:32:00,
2013-04-07 05:42:00,45.0,35.0,29.84,NNW,335,7.0,11.0,68,0.00,,,-99.99,,2013-04-07 11:42:00,
2013-04-07 05:52:00,44.0,35.0,29.84,NNE,30,4.0,7.0,72,0.00,,,-99.99,,2013-04-07 11:52:00,
2013-04-07 06:02:00,43.0,35.0,29.84,ENE,58,6.0,9.0,75,0.00,,,-99.99,,2013-04-07 12:02:00,
2013-04-07 06:12:00,43.0,35.0,29.84,SSW,197,1.0,7.0,75,0.00,,,-99.99,,2013-04-07 12:12:00,
2013-04-07 06:22:00,42.0,35.0,29.84,NE,56,3.0,3.0,76,0.00,,,-99.99,,2013-04-07 12:22:00,
2013-04-07 06:33:00,40.0,35.0,29.84,East,96,4.0,4.0,81,0.00,,,-99.99,,2013-04-07 12:33:00,
2013-04-07 06:42:00,41.0,35.0,29.84,East,82,5.0,5.0,79,0.00,,,-99.99,,2013-04-07 12:42:00,
2013-04-07 06:53:00,41.0,35.0,29.84,South,173,4.0,6.0,79,0.00,,,-99.99,,2013-04-07 12:53:00,
2013-04-07 07:03:00,41.0,35.0,29.85,SSW,202,3.0,5.0,78,0.00,,,-99.99,,2013-04-07 13:03:00,
2013-04-07 07:13:00,42.0,35.0,29.85,SSE,164,8.0,8.0,79,0.00,,,-99.99,,2013-04-07 13:13:00,
2013-04-07 07:22:00,43.0,35.0,29.85,NE,36,1.0,8.0,74,0.00,,,-99.99,,2013-04-07 13:22:00,
2013-04-07 07:32:00,43.0,35.0,29.85,SSW,202,5.0,6.0,75,0.00,,,-99.99,,2013-04-07 13:32:00,
2013-04-07 07:42:00,43.0,36.0,29.85,WSW,244,6.0,8.0,75,0.00,,,-99.99,,2013-04-07 13:42:00,
2013-04-07 07:52:00,45.0,35.0,29.85,SSW,201,9.0,12.0,69,0.00,,,-99.99,,2013-04-07 13:52:00,
2013-04-07 08:02:00,45.0,35.0,29.85,South,191,8.0,15.0,70,0.00,,,-99.99,,2013-04-07 14:02:00,
2013-04-07 08:12:00,46.0,35.0,29.85,South,174,3.0,9.0,66,0.00,,,-99.99,,2013-04-07 14:12:00,
2013-04-07 08:23:00,48.0,34.0,29.85,SW,214,3.0,7.0,60,0.00,,,-99.99,,2013-04-07 14:23:00,
2013-04-07 08:32:00,49.0,33.0,29.84,SSE,155,5.0,11.0,55,0.00,,,-99.99,,2013-04-07 14:32:00,
2013-04-07 08:43:00,50.0,32.0,29.84,SSW,206,4.0,9.0,51,0.00,,,-99.99,,2013-04-07 14:43:00,
2013-04-07 08:53:00,50.0,33.0,29.83,South,189,5.0,8.0,52,0.00,,,-99.99,,2013-04-07 14:53:00,
2013-04-07 09:02:00,49.0,34.0,29.83,South,189,8.0,14.0,55,0.00,,,-99.99,,2013-04-07 15:02:00,
2013-04-07 09:12:00,49.0,33.0,29.82,South,182,7.0,15.0,55,0.00,,,-99.99,,2013-04-07 15:12:00,
2013-04-07 09:22:00,49.0,33.0,29.82,SSW,193,8.0,15.0,53,0.00,,,-99.99,,2013-04-07 15:22:00,
2013-04-07 09:33:00,50.0,32.0,29.82,South,170,8.0,11.0,51,0.00,,,-99.99,,2013-04-07 15:33:00,
2013-04-07 09:43:00,50.0,32.0,29.82,South,170,8.0,11.0,48,0.00,,,-99.99,,2013-04-07 15:43:00,
2013-04-07 09:53:00,52.0,32.0,29.80,South,180,7.0,14.0,46,0.00,,,-99.99,,2013-04-07 15:53:00,
2013-04-07 10:03:00,53.0,31.0,29.80,WSW,242,15.0,16.0,43,0.00,,,-99.99,,2013-04-07 16:03:00,
2013-04-07 10:13:00,55.0,26.0,29.79,WSW,250,9.0,17.0,34,0.00,,,-99.99,,2013-04-07 16:13:00,
2013-04-07 10:33:00,56.0,26.0,29.79,SW,234,19.0,24.0,32,0.00,,,-99.99,,2013-04-07 16:33:00,
2013-04-07 10:42:00,56.0,24.0,29.79,SW,235,13.0,26.0,29,0.00,,,-99.99,,2013-04-07 16:42:00,
2013-04-07 10:53:00,57.0,24.0,29.79,WSW,256,14.0,24.0,28,0.00,,,-99.99,,2013-04-07 16:53:00,
2013-04-07 11:03:00,57.0,24.0,29.79,SSE,157,9.0,21.0,28,0.00,,,-99.99,,2013-04-07 17:03:00,
2013-04-07 11:13:00,59.0,23.0,29.79,WSW,257,14.0,19.0,25,0.00,,,-99.99,,2013-04-07 17:13:00,
2013-04-07 11:23:00,60.0,23.0,29.78,WNW,284,9.0,19.0,24,0.00,,,-99.99,,2013-04-07 17:23:00,
2013-04-07 11:33:00,60.0,21.0,29.78,WSW,238,15.0,19.0,22,0.00,,,-99.99,,2013-04-07 17:33:00,
2013-04-07 11:42:00,60.0,21.0,29.78,West,264,9.0,19.0,23,0.00,,,-99.99,,2013-04-07 17:42:00,
2013-04-07 11:52:00,60.0,20.0,29.77,West,274,17.0,21.0,21,0.00,,,-99.99,,2013-04-07 17:52:00,
2013-04-07 12:02:00,60.0,20.0,29.77,West,278,9.0,21.0,21,0.00,,,-99.99,,2013-04-07 18:02:00,
2013-04-07 12:13:00,61.0,20.0,29.76,WNW,288,11.0,20.0,21,0.00,,,-99.99,,2013-04-07 18:13:00,
2013-04-07 12:22:00,61.0,20.0,29.76,WNW,286,12.0,23.0,20,0.00,,,-99.99,,2013-04-07 18:22:00,
2013-04-07 12:32:00,62.0,20.0,29.76,West,273,13.0,20.0,20,0.00,,,-99.99,,2013-04-07 18:32:00,
2013-04-07 12:42:00,63.0,20.0,29.74,WNW,284,14.0,22.0,19,0.00,,,-99.99,,2013-04-07 18:42:00,
2013-04-07 12:52:00,63.0,20.0,29.74,West,270,13.0,20.0,19,0.00,,,-99.99,,2013-04-07 18:52:00,
2013-04-07 13:02:00,63.0,21.0,29.73,WNW,295,13.0,23.0,20,0.00,,,-99.99,,2013-04-07 19:02:00,
2013-04-07 13:12:00,63.0,21.0,29.73,WNW,295,14.0,24.0,20,0.00,,,-99.99,,2013-04-07 19:12:00,
2013-04-07 13:22:00,63.0,20.0,29.73,WNW,291,16.0,23.0,20,0.00,,,-99.99,,2013-04-07 19:22:00,
2013-04-07 13:32:00,63.0,22.0,29.72,West,259,13.0,22.0,20,0.00,,,-99.99,,2013-04-07 19:32:00,
2013-04-07 13:42:00,61.0,20.0,29.72,WNW,284,14.0,26.0,19,0.00,,,-99.99,,2013-04-07 19:42:00,
2013-04-07 13:53:00,61.0,19.0,29.72,WNW,296,11.0,22.0,20,0.00,,,-99.99,,2013-04-07 19:53:00,
2013-04-07 14:02:00,63.0,21.0,29.72,West,269,7.0,20.0,20,0.00,,,-99.99,,2013-04-07 20:02:00,
2013-04-07 14:13:00,62.0,22.0,29.72,WNW,299,9.0,25.0,21,0.00,,,-99.99,,2013-04-07 20:13:00,
2013-04-07 14:22:00,62.0,23.0,29.72,NNW,333,19.0,27.0,22,0.00,,,-99.99,,2013-04-07 20:22:00,
2013-04-07 14:32:00,61.0,22.0,29.72,NNW,330,14.0,24.0,22,0.00,,,-99.99,,2013-04-07 20:32:00,
2013-04-07 14:43:00,61.0,22.0,29.72,NNW,347,19.0,24.0,22,0.00,,,-99.99,,2013-04-07 20:43:00,
2013-04-07 14:52:00,60.0,22.0,29.72,NW,313,24.0,30.0,23,0.00,,,-99.99,,2013-04-07 20:52:00,
2013-04-07 15:03:00,60.0,23.0,29.72,NW,323,13.0,30.0,24,0.00,,,-99.99,,2013-04-07 21:03:00,
2013-04-07 15:13:00,60.0,23.0,29.73,West,266,20.0,25.0,23,0.00,,,-99.99,,2013-04-07 21:13:00,
2013-04-07 15:22:00,60.0,23.0,29.72,West,274,15.0,30.0,24,0.00,,,-99.99,,2013-04-07 21:22:00,
2013-04-07 15:33:00,63.0,23.0,29.72,West,264,6.0,24.0,22,0.00,,,-99.99,,2013-04-07 21:33:00,
2013-04-07 15:43:00,62.0,22.0,29.72,NNW,337,10.0,22.0,21,0.00,,,-99.99,,2013-04-07 21:43:00,
2013-04-07 15:53:00,62.0,24.0,29.72,NNW,333,10.0,17.0,23,0.00,,,-99.99,,2013-04-07 21:53:00,
2013-04-07 16:03:00,63.0,24.0,29.71,NNW,344,7.0,16.0,23,0.00,,,-99.99,,2013-04-07 22:03:00,
2013-04-07 16:13:00,61.0,24.0,29.72,NNW,348,9.0,18.0,23,0.00,,,-99.99,,2013-04-07 22:13:00,
2013-04-07 16:23:00,63.0,25.0,29.71,NW,319,10.0,12.0,24,0.00,,,-99.99,,2013-04-07 22:23:00,
2013-04-07 16:33:00,63.0,25.0,29.72,NW,305,9.0,17.0,24,0.00,,,-99.99,,2013-04-07 22:33:00,
2013-04-07 16:43:00,62.0,23.0,29.72,NW,320,14.0,20.0,22,0.00,,,-99.99,,2013-04-07 22:43:00,
2013-04-07 16:52:00,63.0,19.0,29.72,NW,304,6.0,20.0,18,0.00,,,-99.99,,2013-04-07 22:52:00,
2013-04-07 17:03:00,62.0,20.0,29.71,West,261,23.0,26.0,19,0.00,,,-99.99,,2013-04-07 23:03:00,
2013-04-07 17:12:00,62.0,21.0,29.71,SW,233,14.0,19.0,20,0.00,,,-99.99,,2013-04-07 23:12:00,
2013-04-07 17:22:00,63.0,22.0,29.71,NW,326,6.0,18.0,21,0.00,,,-99.99,,2013-04-07 23:22:00,
2013-04-07 17:32:00,62.0,21.0,29.70,WNW,288,16.0,26.0,20,0.00,,,-99.99,,2013-04-07 23:32:00,
2013-04-07 17:42:00,62.0,21.0,29.71,WSW,258,15.0,31.0,20,0.00,,,-99.99,,2013-04-07 23:42:00,
2013-04-07 17:52:00,62.0,20.0,29.70,West,279,18.0,26.0,19,0.00,,,-99.99,,2013-04-07 23:52:00,
2013-04-07 18:02:00,61.0,20.0,29.70,WNW,290,14.0,25.0,20,0.00,,,-99.99,,2013-04-08 00:02:00,
2013-04-07 18:12:00,62.0,20.0,29.70,West,260,13.0,21.0,20,0.00,,,-99.99,,2013-04-08 00:12:00,
2013-04-07 18:22:00,61.0,20.0,29.70,West,271,8.0,16.0,20,0.00,,,-99.99,,2013-04-08 00:22:00,
2013-04-07 18:32:00,61.0,20.0,29.70,WNW,292,11.0,18.0,21,0.00,,,-99.99,,2013-04-08 00:32:00,
2013-04-07 18:42:00,61.0,20.0,29.70,NW,314,13.0,15.0,21,0.00,,,-99.99,,2013-04-08 00:42:00,
2013-04-07 18:52:00,60.0,20.0,29.71,WNW,283,9.0,20.0,21,0.00,,,-99.99,,2013-04-08 00:52:00,
2013-04-07 19:02:00,60.0,20.0,29.71,WNW,290,13.0,18.0,21,0.00,,,-99.99,,2013-04-08 01:02:00,
2013-04-07 19:12:00,60.0,20.0,29.71,WNW,283,16.0,25.0,21,0.00,,,-99.99,,2013-04-08 01:12:00,
2013-04-07 19:22:00,59.0,20.0,29.71,WNW,282,15.0,25.0,21,0.00,,,-99.99,,2013-04-08 01:22:00,
2013-04-07 19:33:00,59.0,21.0,29.71,West,275,16.0,22.0,22,0.00,,,-99.99,,2013-04-08 01:33:00,
2013-04-07 19:43:00,58.0,23.0,29.72,WNW,297,8.0,20.0,25,0.00,,,-99.99,,2013-04-08 01:43:00,
2013-04-07 19:53:00,58.0,22.0,29.72,West,260,15.0,20.0,25,0.00,,,-99.99,,2013-04-08 01:53:00,
2013-04-07 20:02:00,58.0,23.0,29.73,WSW,237,12.0,22.0,26,0.00,,,-99.99,,2013-04-08 02:02:00,
2013-04-07 20:12:00,56.0,25.0,29.73,WNW,290,10.0,17.0,28,0.00,,,-99.99,,2013-04-08 02:12:00,
2013-04-07 20:22:00,57.0,24.0,29.73,West,276,13.0,20.0,28,0.00,,,-99.99,,2013-04-08 02:22:00,
2013-04-07 20:33:00,55.0,26.0,29.73,WNW,296,15.0,20.0,32,0.00,,,-99.99,,2013-04-08 02:33:00,
2013-04-07 20:45:00,53.0,29.0,29.72,West,279,12.0,22.0,38,0.00,,,-99.99,,2013-04-08 02:45:00,
2013-04-07 20:52:00,52.0,30.0,29.73,WNW,286,11.0,18.0,42,0.00,,,-99.99,,2013-04-08 02:52:00,
2013-04-07 21:06:00,52.0,31.0,29.72,West,277,7.0,21.0,45,0.00,,,-99.99,,2013-04-08 03:06:00,
2013-04-07 21:14:00,51.0,32.0,29.73,WNW,299,10.0,13.0,47,0.00,,,-99.99,,2013-04-08 03:14:00,
2013-04-07 21:23:00,50.0,32.0,29.73,WSW,239,5.0,11.0,48,0.00,,,-99.99,,2013-04-08 03:23:00,
2013-04-07 21:33:00,49.0,32.0,29.72,West,281,5.0,9.0,51,0.00,,,-99.99,,2013-04-08 03:33:00,
2013-04-07 21:46:00,49.0,33.0,29.73,WSW,239,6.0,7.0,54,0.00,,,-99.99,,2013-04-08 03:46:00,
2013-04-07 21:53:00,50.0,32.0,29.72,SSW,207,6.0,9.0,50,0.00,,,-99.99,,2013-04-08 03:53:00,
2013-04-07 22:03:00,50.0,32.0,29.72,SSW,198,5.0,8.0,49,0.00,,,-99.99,,2013-04-08 04:03:00,
2013-04-07 22:12:00,51.0,31.0,29.72,SSW,199,5.0,8.0,46,0.00,,,-99.99,,2013-04-08 04:12:00,
2013-04-07 22:23:00,51.0,30.0,29.72,SW,216,6.0,9.0,44,0.00,,,-99.99,,2013-04-08 04:23:00,
2013-04-07 22:33:00,51.0,30.0,29.72,South,188,5.0,8.0,45,0.00,,,-99.99,,2013-04-08 04:33:00,
2013-04-07 22:43:00,51.0,30.0,29.72,SSW,197,7.0,9.0,45,0.00,,,-99.99,,2013-04-08 04:43:00,
2013-04-07 22:52:00,50.0,31.0,29.72,South,180,5.0,8.0,47,0.00,,,-99.99,,2013-04-08 04:52:00,
2013-04-07 23:02:00,49.0,31.0,29.72,ESE,122,2.0,7.0,49,0.00,,,-99.99,,2013-04-08 05:02:00,
2013-04-07 23:12:00,47.0,31.0,29.71,ESE,113,5.0,8.0,53,0.00,,,-99.99,,2013-04-08 05:12:00,
2013-04-07 23:22:00,47.0,31.0,29.71,ESE,113,5.0,8.0,53,0.00,,,-99.99,,2013-04-08 05:22:00,
2013-04-07 23:32:00,47.0,31.0,29.70,SSE,162,2.0,8.0,53,0.00,,,-99.99,,2013-04-08 05:32:00,
2013-04-07 23:42:00,48.0,31.0,29.70,SSE,159,6.0,8.0,51,0.00,,,-99.99,,2013-04-08 05:42:00,
2013-04-07 23:52:00,48.0,29.0,29.71,SSE,150,5.0,9.0,48,0.00,,,-99.99,,2013-04-08 05:52:00,